Location: Unspecified
(0.0000°N, 0.0000°E)
Time: 18:26:23
(UTC+00:00)

USA 238 DEB - Pass Details

Date: 01 June 2023
Orbit: 930 x 1283 km, 63.4° (Epoch: 27 September)

Event Time Altitude Azimuth Distance (km) Brightness Sun altitude
Rises 04:40:52 0° 9° (N) 4,173 7.2 -17.8°
Reaches altitude 10° 04:44:48 10° 27° (NNE) 3,245 6.9 -16.9°
Maximum altitude 04:49:44 18° 66° (ENE) 2,726 7.0 -15.7°
Drops below altitude 10° 04:54:40 10° 105° (ESE) 3,276 7.0 -14.6°
Sets 04:58:37 0° 123° (ESE) 4,230 7.3 -13.7°
